Location: Arrakis Observatory
(44.1122°N, 95.7153°W)
Time: 10:09:47
(UTC-05:00)

Amateur Radio Satellites - All Passes

Search period start: 30 July 2014 09:39
Search period end: 31 July 2014 09:39
Location: Arrakis Observatory, 44.1122°N, 95.7153°W

Satellite Date Start Highest point End Downlink Frequencies (MHz)
Time Altitude Azimuth
Sapphire 30 Jul 09:42:37 09:47:55 50° 53° (NE) 09:53:10 437.095 MHz 1200 baud AX-25 AFSK
PCSat 30 Jul 10:15:51 10:21:19 87° 240° (WSW) 10:26:44 145.825 MHz
KITSAT 1 30 Jul 10:32:49 10:37:43 17° 345° (NNW) 10:42:37 435.175 FM
UKube-1 30 Jul 10:37:30 10:41:49 58° 101° (E) 10:46:06 145.840 MHz, 145.915 MHz
Oscar 11 30 Jul 11:21:05 11:25:27 88° 284° (WNW) 11:29:47 145.825 FM, Beacon 2401.500 USB
HO-68 30 Jul 11:26:19 11:33:16 56° 293° (WNW) 11:40:11 435.675 MHz FM
Sapphire 30 Jul 11:26:36 11:31:02 26° 252° (WSW) 11:35:27 437.095 MHz 1200 baud AX-25 AFSK
FUNcube-1 30 Jul 11:46:35 11:50:45 65° 101° (ESE) 11:54:57 145.950 - 145.970 MHz USB
PCSat 30 Jul 12:01:41 12:03:53 13° 258° (WSW) 12:06:05 145.825 MHz
UKube-1 30 Jul 12:15:00 12:17:34 16° 299° (WNW) 12:20:09 145.840 MHz, 145.915 MHz
SO-50 30 Jul 12:18:45 12:22:34 28° 114° (ESE) 12:26:27 436.795 FM
KITSAT 1 30 Jul 12:31:59 12:37:00 17° 16° (NNE) 12:42:00 435.175 FM
Oscar 19 30 Jul 12:39:49 12:42:52 16° 59° (ENE) 12:45:56 437.125 CW, 437.150 USB
Oscar 11 30 Jul 13:00:44 13:00:55 10° 301° (WNW) 13:01:05 145.825 FM, Beacon 2401.500 USB
Oscar 16 30 Jul 13:06:55 13:11:14 28° 65° (ENE) 13:15:34 437.025 USB, Beacon 2401.1428
HO-68 30 Jul 13:16:45 13:19:28 13° 314° (NW) 13:22:11 435.675 MHz FM
FUNcube-1 30 Jul 13:24:46 13:26:40 13° 298° (WNW) 13:28:34 145.950 - 145.970 MHz USB
JAS-1B 30 Jul 13:31:14 13:38:52 30° 54° (NE) 13:46:52 435.800 - 435.900 CW/SSB
ITAMSAT 1 30 Jul 13:31:28 13:35:28 23° 62° (ENE) 13:39:27 435.822 SSB
RS-15 30 Jul 13:33:50 13:44:30 55° 113° (ESE) 13:54:57 29.354 - 29.394 USB, Beacon 29.352 USB
Uribyol 2 30 Jul 13:49:44 13:54:21 34° 66° (ENE) 13:58:59 436.500 FM
AO-27 30 Jul 13:50:20 13:54:57 33° 66° (ENE) 13:59:35 436.795 MHz FM
AO-7 30 Jul 13:54:38 13:56:14 11° 36° (NE) 13:57:51 29.400 - 29.500 MHz
SO-50 30 Jul 13:58:49 14:03:00 37° 313° (NW) 14:07:17 436.795 FM
TMSAT-1 30 Jul 13:59:00 14:01:23 13° 57° (ENE) 14:03:46 436.925 FM
UOSAT-12 30 Jul 14:10:49 14:14:45 29° 114° (ESE) 14:18:47 437.025 FM, 437.400 FM
Oscar 19 30 Jul 14:16:30 14:21:36 74° 257° (WSW) 14:26:45 437.125 CW, 437.150 USB
AO-Echo 30 Jul 14:20:05 14:25:18 60° 72° (ENE) 14:30:32 ?
Gurwin Techsat 1B 30 Jul 14:21:58 14:26:22 27° 64° (ENE) 14:30:47 435.225 FM
KITSAT 1 30 Jul 14:27:26 14:35:00 41° 44° (NE) 14:42:31 435.175 FM
Oscar 16 30 Jul 14:45:41 14:50:26 39° 262° (W) 14:55:14 437.025 USB, Beacon 2401.1428
ITAMSAT 1 30 Jul 15:09:32 15:14:37 52° 260° (W) 15:19:43 435.822 SSB
JAS-1B 30 Jul 15:19:08 15:28:12 84° 255° (WSW) 15:38:12 435.800 - 435.900 CW/SSB
Uribyol 2 30 Jul 15:29:08 15:33:48 33° 264° (W) 15:38:28 436.500 FM
AO-27 30 Jul 15:29:42 15:34:25 34° 263° (W) 15:39:09 436.795 MHz FM
TMSAT-1 30 Jul 15:35:11 15:40:30 84° 75° (ENE) 15:45:50 436.925 FM
AO-7 30 Jul 15:39:08 15:46:45 41° 59° (ENE) 15:54:23 29.400 - 29.500 MHz
Saudisat 1A 30 Jul 15:42:53 15:46:54 33° 46° (NE) 15:50:53 436.775 MHz
RS-15 30 Jul 15:46:19 15:56:59 51° 318° (NW) 16:07:36 29.354 - 29.394 USB, Beacon 29.352 USB
UOSAT-12 30 Jul 15:50:25 15:54:47 39° 313° (NW) 15:59:13 437.025 FM, 437.400 FM
AO-Echo 30 Jul 16:00:43 16:04:26 19° 269° (W) 16:08:11 ?
Gurwin Techsat 1B 30 Jul 16:01:06 16:06:08 43° 262° (W) 16:11:12 435.225 FM
Uosat F 30 Jul 16:18:55 16:23:48 52° 70° (ENE) 16:28:42 435.120 FM
KITSAT 1 30 Jul 16:22:51 16:30:42 57° 246° (WSW) 16:38:30 435.175 FM
JAS-2 30 Jul 17:05:46 17:11:08 22° 58° (ENE) 17:16:13 435.800 - 435.900 CW/SSB, 435.910 FM
JAS-1B 30 Jul 17:13:36 17:20:05 21° 277° (W) 17:27:01 435.800 - 435.900 CW/SSB
OPAL 30 Jul 17:14:59 17:19:52 45° 101° (ESE) 17:24:47 ?
TMSAT-1 30 Jul 17:18:45 17:21:05 13° 272° (W) 17:23:25 436.925 FM
Saudisat 1A 30 Jul 17:22:32 17:26:28 32° 244° (WSW) 17:30:22 436.775 MHz
AO-7 30 Jul 17:31:17 17:39:21 51° 259° (WSW) 17:47:29 29.400 - 29.500 MHz
UOSAT-12 30 Jul 17:35:28 17:36:15 10° 335° (NNW) 17:37:03 437.025 FM, 437.400 FM
Hamsat 30 Jul 17:36:31 17:39:44 22° 66° (ENE) 17:42:58 145.90 MHz
Uosat F 30 Jul 17:59:13 18:02:53 20° 268° (W) 18:06:35 435.120 FM
RS-15 30 Jul 18:03:57 18:12:41 26° 350° (N) 18:21:29 29.354 - 29.394 USB, Beacon 29.352 USB
JAS-2 30 Jul 18:47:36 18:55:24 89° 255° (WSW) 19:02:38 435.800 - 435.900 CW/SSB, 435.910 FM
OPAL 30 Jul 18:54:24 18:58:30 25° 298° (WNW) 19:02:38 ?
SO-50 30 Jul 19:09:39 19:10:57 11° 27° (NNE) 19:12:15 436.795 FM
Hamsat 30 Jul 19:11:41 19:15:30 35° 263° (W) 19:19:23 145.90 MHz
STRAND 1 30 Jul 19:41:11 19:45:54 37° 97° (E) 19:50:35 ?
SO-67 30 Jul 19:58:20 20:01:45 59° 260° (W) 20:05:12 435.3500 MHz FM
HO-68 30 Jul 20:09:48 20:15:40 29° 58° (ENE) 20:21:33 435.675 MHz FM
RS-15 30 Jul 20:20:02 20:29:35 32° 25° (NNE) 20:39:17 29.354 - 29.394 USB, Beacon 29.352 USB
JAS-2 30 Jul 20:36:03 20:41:07 19° 272° (W) 20:46:00 435.800 - 435.900 CW/SSB, 435.910 FM
SO-50 30 Jul 20:48:12 20:52:44 43° 48° (NE) 20:57:20 436.795 FM
UOSAT-12 30 Jul 21:00:23 21:01:28 11° 26° (NNE) 21:02:34 437.025 FM, 437.400 FM
MaSat-1 30 Jul 21:13:26 21:17:20 41° 109° (ESE) 21:21:49 437.345 MHz
STRAND 1 30 Jul 21:20:35 21:24:58 30° 295° (WNW) 21:29:20 ?
UKube-1 30 Jul 21:34:18 21:38:37 61° 73° (ENE) 21:42:57 145.840 MHz, 145.915 MHz
HO-68 30 Jul 21:55:47 22:02:53 65° 257° (WSW) 22:10:01 435.675 MHz FM
Oscar 11 30 Jul 22:17:22 22:21:41 87° 76° (ENE) 22:26:01 145.825 FM, Beacon 2401.500 USB
SO-50 30 Jul 22:29:08 22:33:08 27° 246° (WSW) 22:37:10 436.795 FM
RS-15 30 Jul 22:32:52 22:43:56 79° 53° (NE) 22:55:24 29.354 - 29.394 USB, Beacon 29.352 USB
UOSAT-12 30 Jul 22:38:25 22:42:55 41° 47° (NE) 22:47:21 437.025 FM, 437.400 FM
FUNcube-1 30 Jul 22:44:25 22:48:40 63° 74° (ENE) 22:52:51 145.950 - 145.970 MHz USB
MaSat-1 30 Jul 22:51:11 22:54:52 26° 311° (NW) 22:58:57 437.345 MHz
UKube-1 30 Jul 23:13:05 23:15:14 13° 270° (W) 23:17:22 145.840 MHz, 145.915 MHz
ISS 30 Jul 23:26:57 23:30:04 38° 141° (SE) 23:33:13 145.800 FM
HO-68 30 Jul 23:50:50 23:51:56 10° 276° (W) 23:53:01 435.675 MHz FM
UOSAT-12 31 Jul 00:18:53 00:22:55 28° 246° (WSW) 00:26:54 437.025 FM, 437.400 FM
FUNcube-1 31 Jul 00:23:44 00:25:28 12° 270° (W) 00:27:12 145.950 - 145.970 MHz USB
Sapphire 31 Jul 00:26:24 00:31:09 32° 110° (ESE) 00:35:55 437.095 MHz 1200 baud AX-25 AFSK
RS-15 31 Jul 00:46:10 00:55:15 31° 255° (WSW) 01:04:37 29.354 - 29.394 USB, Beacon 29.352 USB
PCSat 31 Jul 00:58:50 01:04:10 65° 117° (ESE) 01:09:33 145.825 MHz
ISS 31 Jul 01:03:38 01:06:48 38° 339° (NNW) 01:09:59 145.800 FM
Sapphire 31 Jul 02:09:21 02:14:27 41° 309° (NW) 02:19:35 437.095 MHz 1200 baud AX-25 AFSK
Oscar 19 31 Jul 02:26:47 02:31:30 35° 97° (E) 02:36:13 437.125 CW, 437.150 USB
AO-Echo 31 Jul 02:27:26 02:30:38 17° 90° (E) 02:33:45 ?
ISS 31 Jul 02:41:27 02:44:08 22° 359° (N) 02:46:51 145.800 FM
PCSat 31 Jul 02:43:41 02:48:03 24° 317° (NW) 02:52:27 145.825 MHz
Oscar 16 31 Jul 02:55:18 03:00:27 66° 102° (ESE) 03:05:36 437.025 USB, Beacon 2401.1428
OPAL 31 Jul 02:55:48 02:58:19 14° 55° (NE) 03:00:51 ?
JAS-1B 31 Jul 03:05:11 03:13:21 34° 90° (E) 03:20:26 435.800 - 435.900 CW/SSB
ITAMSAT 1 31 Jul 03:20:49 03:25:52 50° 100° (E) 03:30:51 435.822 SSB
Uribyol 2 31 Jul 03:39:37 03:44:49 79° 104° (ESE) 03:49:58 436.500 FM
AO-27 31 Jul 03:40:33 03:45:46 77° 104° (ESE) 03:50:56 436.795 MHz FM
TMSAT-1 31 Jul 03:49:58 03:54:35 30° 95° (E) 03:59:11 436.925 FM
Sapphire 31 Jul 03:58:10 03:59:26 11° 332° (NNW) 04:00:41 437.095 MHz 1200 baud AX-25 AFSK
AO-Echo 31 Jul 04:04:52 04:09:52 60° 288° (WNW) 04:14:40 ?
Oscar 19 31 Jul 04:06:14 04:10:46 32° 294° (WNW) 04:15:18 437.125 CW, 437.150 USB
Gurwin Techsat 1B 31 Jul 04:15:24 04:20:43 68° 102° (ESE) 04:25:59 435.225 FM
ISS 31 Jul 04:18:25 04:21:32 33° 19° (NNE) 04:24:38 145.800 FM
Uosat F 31 Jul 04:26:48 04:29:21 14° 89° (E) 04:31:54 435.120 FM
OPAL 31 Jul 04:31:35 04:36:31 85° 253° (WSW) 04:41:31 ?
Oscar 16 31 Jul 04:35:52 04:39:17 18° 300° (WNW) 04:42:43 437.025 USB, Beacon 2401.1428
JAS-1B 31 Jul 04:55:10 05:04:25 62° 293° (WNW) 05:12:19 435.800 - 435.900 CW/SSB
KITSAT 1 31 Jul 05:00:30 05:05:35 18° 101° (E) 05:10:41 435.175 FM
ITAMSAT 1 31 Jul 05:01:01 05:05:02 23° 298° (WNW) 05:09:01 435.822 SSB
Uribyol 2 31 Jul 05:20:41 05:23:39 16° 302° (WNW) 05:26:36 436.500 FM
AO-27 31 Jul 05:21:36 05:24:39 16° 301° (WNW) 05:27:41 436.795 MHz FM
TMSAT-1 31 Jul 05:29:42 05:34:34 38° 292° (WNW) 05:39:24 436.925 FM
MaSat-1 31 Jul 05:30:17 05:34:27 23° 47° (NE) 05:38:29 437.345 MHz
AO-7 31 Jul 05:30:47 05:38:54 52° 102° (ESE) 05:46:55 29.400 - 29.500 MHz
ISS 31 Jul 05:55:05 05:58:22 50° 217° (SW) 06:01:37 145.800 FM
Gurwin Techsat 1B 31 Jul 05:56:36 06:00:08 18° 300° (WNW) 06:03:39 435.225 FM
Uosat F 31 Jul 06:03:40 06:08:41 74° 287° (WNW) 06:13:40 435.120 FM
JAS-1B 31 Jul 06:47:23 06:52:51 18° 316° (NW) 06:58:00 435.800 - 435.900 CW/SSB
KITSAT 1 31 Jul 06:51:42 06:59:48 85° 120° (ESE) 07:07:57 435.175 FM
Hamsat 31 Jul 06:55:34 06:59:33 35° 97° (E) 07:03:32 145.90 MHz
STRAND 1 31 Jul 06:58:26 07:03:30 63° 72° (ENE) 07:08:36 ?
MaSat-1 31 Jul 07:07:01 07:12:17 66° 247° (WSW) 07:17:13 437.345 MHz
AO-7 31 Jul 07:23:55 07:31:28 40° 301° (WNW) 07:38:59 29.400 - 29.500 MHz
Saudisat 1A 31 Jul 07:29:53 07:34:04 44° 118° (ESE) 07:38:17 436.775 MHz
Sapphire 31 Jul 07:31:40 07:32:19 10° 27° (NNE) 07:32:58 437.095 MHz 1200 baud AX-25 AFSK
JAS-2 31 Jul 07:41:56 07:47:51 72° 102° (ESE) 07:53:10 435.800 - 435.900 CW/SSB, 435.910 FM
Uosat F 31 Jul 07:45:31 07:46:35 11° 305° (NW) 07:47:39 435.120 FM
PCSat 31 Jul 08:03:03 08:06:20 16° 36° (NE) 08:09:36 145.825 MHz
Hamsat 31 Jul 08:31:56 08:35:20 23° 293° (WNW) 08:38:44 145.90 MHz
STRAND 1 31 Jul 08:39:48 08:43:07 17° 269° (W) 08:46:28 ?
KITSAT 1 31 Jul 08:49:15 08:56:11 30° 324° (NW) 09:03:08 435.175 FM
SO-67 31 Jul 08:53:45 08:57:11 59° 285° (WNW) 09:00:36 435.3500 MHz FM
Saudisat 1A 31 Jul 09:10:05 09:13:50 26° 317° (NW) 09:17:36 436.775 MHz
Sapphire 31 Jul 09:12:18 09:17:22 38° 50° (NE) 09:22:25 437.095 MHz 1200 baud AX-25 AFSK
AO-7 31 Jul 09:20:51 09:21:57 10° 325° (NW) 09:23:03 29.400 - 29.500 MHz
HO-68 31 Jul 09:22:40 09:28:08 23° 92° (E) 09:33:33 435.675 MHz FM
JAS-2 31 Jul 09:28:18 09:32:11 18° 304° (NW) 09:35:51 435.800 - 435.900 CW/SSB, 435.910 FM
